Hilo, HI

12:53 AM HST on June 23, 2017 (GMT -1000)
Hilo International

Weather History for PHTO - November, 2014

Change the Weather History Date:

Sunday, November 16, 2014

  Actual Average Record
Temperature  
Mean Temperature 78 °F 74 °F  
Max Temperature 85 °F 81 °F 88 °F (1996)
Min Temperature 70 °F 67 °F 59 °F (1974)
Degree Days  
Heating Degree Days 0 0  
Month to date heating degree days 0 0  
Since 1 July heating degree days 0 0  
Cooling Degree Days 13 9  
Month to date cooling degree days 165 152  
Year to date cooling degree days 3291 2887  
Growing Degree Days 27 (Base 50)    
Moisture  
Dew Point 69 °F    
Average Humidity 78    
Maximum Humidity 94    
Minimum Humidity 62    
Precipitation  
Precipitation 0.45 in 0.55 in 2.95 in (2003)
Month to date precipitation 4.48 8.39  
Year to date precipitation 104.59 108.04  
Snow  
Snow 0.00 in - - ()
Month to date snowfall 0.0  
Since 1 July snowfall 0.0  
Since 1 September snowfall 0.0  
Snow Depth 0.00 in    
Sea Level Pressure  
Sea Level Pressure 29.96 in    
Wind  
Wind Speed 9 mph (NNW)    
Max Wind Speed 17 mph    
Max Gust Speed 23 mph    
Visibility 9 miles    
Events Rain    
T = Trace of Precipitation, MM = Missing Value Source: NWS Daily Summary

Daily Weather History Graph

Daily Weather History Graph

Search for Another Location

Airport or City:

Trip Planner

Search our weather history database for the weather conditions in past years. The results will help you decide how hot, cold, wet, or windy it might be!

Date:

Astronomy

Nov. 16, 2014 Rise Set
Actual Time 6:29 AM HST 5:40 PM HST
Civil Twilight 6:06 AM HST 6:03 PM HST
Nautical Twilight 5:39 AM HST 6:30 PM HST
Astronomical Twilight 5:13 AM HST 6:56 PM HST
Moon 1:30 AM HST (11/16) 1:58 PM HST (11/16)
Length of Visible Light 11h 57m
Length of Day
11h 11m
Waning Crescent, 29% of the Moon is Illuminated
Nov 16
Waning Crescent
Nov 22
New
Nov 29
First Quarter
Dec 6
Full
Dec 14
Last Quarter

Hourly Weather History & Observations

Time (HST) Temp. Heat Index Dew Point Humidity Pressure Visibility Wind Dir Wind Speed Gust Speed Precip Events Conditions
12:53 AM 72.0 °F - 64.0 °F 76% 29.89 in 10.0 mi SW 4.6 mph - N/A   Clear
1:53 AM 72.0 °F - 63.0 °F 73% 29.89 in 10.0 mi SW 5.8 mph - N/A   Clear
2:53 AM 71.1 °F - 64.0 °F 78% 29.88 in 10.0 mi SW 5.8 mph - N/A   Clear
3:53 AM 71.1 °F - 63.0 °F 75% 29.88 in 10.0 mi WSW 5.8 mph - N/A   Scattered Clouds
4:53 AM 72.0 °F - 62.1 °F 71% 29.89 in 10.0 mi WSW 6.9 mph - N/A   Mostly Cloudy
5:53 AM 71.1 °F - 61.0 °F 70% 29.91 in 10.0 mi SSW 5.8 mph - N/A   Scattered Clouds
6:53 AM 70.0 °F - 61.0 °F 73% 29.93 in 10.0 mi WSW 5.8 mph - N/A   Scattered Clouds
7:53 AM 75.0 °F - 62.1 °F 64% 29.96 in 10.0 mi SW 4.6 mph - N/A   Partly Cloudy
8:53 AM 81.0 °F 83.3 °F 66.9 °F 62% 29.98 in 10.0 mi Calm Calm - N/A   Clear
9:53 AM 82.9 °F 86.5 °F 69.1 °F 63% 29.98 in 10.0 mi NNE 9.2 mph - N/A   Partly Cloudy
10:53 AM 84.0 °F 89.0 °F 71.1 °F 65% 29.97 in 10.0 mi NNE 11.5 mph - N/A   Clear
11:53 AM 84.0 °F 89.0 °F 71.1 °F 65% 29.95 in 10.0 mi North 11.5 mph - N/A   Clear
12:53 PM 84.0 °F 89.0 °F 71.1 °F 65% 29.93 in 10.0 mi North 11.5 mph - N/A   Partly Cloudy
1:34 PM 82.0 °F 86.3 °F 71.1 °F 69% 29.92 in 10.0 mi NE 11.5 mph - N/A   Mostly Cloudy
1:53 PM 82.9 °F 87.5 °F 71.1 °F 67% 29.92 in 10.0 mi NNE 11.5 mph - N/A   Mostly Cloudy
2:44 PM 75.9 °F - 73.0 °F 91% 29.93 in 1.8 mi NW 10.4 mph 21.9 mph 0.08 in Rain Heavy Rain
2:53 PM 75.9 °F - 73.0 °F 91% 29.93 in 2.0 mi NW 8.1 mph - 0.18 in Rain Light Rain
3:02 PM 75.9 °F - 73.9 °F 94% 29.93 in 4.0 mi NNW 10.4 mph - 0.01 in Rain Light Rain
3:04 PM 75.9 °F - 73.9 °F 94% 29.93 in 2.0 mi NNW 10.4 mph - 0.01 in Rain Light Rain
3:35 PM 75.9 °F - 72.0 °F 87% 29.94 in 3.0 mi WNW 5.8 mph - 0.16 in Rain Light Rain
3:53 PM 75.9 °F - 73.0 °F 91% 29.94 in 10.0 mi WNW 8.1 mph - 0.16 in Rain Light Rain
4:09 PM 75.0 °F - 72.0 °F 90% 29.95 in 1.8 mi NNE 6.9 mph - 0.04 in Rain Heavy Rain
4:15 PM 75.0 °F - 72.0 °F 90% 29.95 in 2.0 mi North 15.0 mph 21.9 mph 0.10 in Rain Rain
4:24 PM 75.9 °F - 73.0 °F 91% 29.95 in 10.0 mi North 17.3 mph 23.0 mph 0.10 in Rain Light Rain
4:38 PM 77.0 °F - 73.0 °F 88% 29.96 in 10.0 mi North 12.7 mph - 0.11 in Rain Light Rain
4:53 PM 75.9 °F - 72.0 °F 87% 29.96 in 10.0 mi North 16.1 mph 23.0 mph 0.11 in   Overcast
5:53 PM 75.9 °F - 70.0 °F 82% 29.99 in 10.0 mi NNE 11.5 mph - 0.00 in   Overcast
6:53 PM 77.0 °F - 70.0 °F 79% 30.02 in 10.0 mi NNE 10.4 mph - 0.00 in   Overcast
7:53 PM 75.9 °F - 70.0 °F 82% 30.05 in 10.0 mi NNE 15.0 mph - N/A   Overcast
8:53 PM 75.0 °F - 70.0 °F 84% 30.06 in 10.0 mi NE 9.2 mph - N/A   Overcast
9:53 PM 75.9 °F - 71.1 °F 85% 30.06 in 10.0 mi Variable 6.9 mph - 0.00 in Rain Light Rain
10:06 PM 75.9 °F - 68.0 °F 76% 30.06 in 10.0 mi North 11.5 mph - 0.00 in   Overcast
10:46 PM 73.9 °F - 69.1 °F 85% 30.06 in 10.0 mi NNW 15.0 mph - 0.00 in Rain Light Rain
10:53 PM 73.9 °F - 69.1 °F 85% 30.06 in 10.0 mi NNW 9.2 mph - 0.00 in Rain Light Rain
11:53 PM 73.9 °F - 68.0 °F 82% 30.06 in 10.0 mi NNW 15.0 mph - 0.00 in   Overcast